Home   Weather   A Coruña   Past weeks
Flag for Spain

Past Weather in A Coruña, Spain — Yesterday and Last 2 Weeks

Now
55 °F

Cool.


Feels Like: 51 °F
Forecast: 59 / 53 °F
Wind: 12 mph from Southwest

Location: La Coruna

Current Time: Dec 11, 2019 at 4:28:54 pm

Latest Report: Dec 11, 2019 at 3:00 pm


Visibility: 12 mi

Pressure: 30.31 "Hg

Humidity: 79%

Dew Point: 48 °F

Location of A CoruñaLocation

Past Weather in A Coruña — Graph

°F

A Coruña Temperature Yesterday

Maximum temperature yesterday: 59 °F (at 3:00 pm)
Minimum temperature yesterday: 47 °F (at 3:00 am)
Average temperature yesterday: 53 °F

High & Low Weather Summary for the Past Weeks

 TemperatureHumidityPressure
High64 °F (Nov 26, 2:00 pm)98% (Nov 28, 4:00 pm)30.54 "Hg (Nov 28, 4:00 pm)
Low40 °F (Dec 4, 5:00 am)50% (Dec 3, 1:00 pm)29.47 "Hg (Nov 26, 2:00 pm)
Average54 °F80%30.12 "Hg
* Reported Nov 26 2:00 pm — Dec 11 2:00 pm, A Coruña. Weather by CustomWeather, © 2019

Note: Actual official high and low records may vary slightly from our data, if they occured in-between our weather recording intervals... More about our weather records

A Coruña Weather History for the Previous 24 Hours

Scroll right to see more
 ConditionsComfort  
Time TempWeatherWind HumidityBarometerVisibility
2:00 pm
Wed, Dec 11
52 °FCool.12 mph89%30.33 "Hg11 mi
1:00 pm52 °FOvercast.10 mph82%30.36 "Hg5 mi
12:00 pm54 °FCool.13 mph69%30.36 "Hg12 mi
11:00 am53 °FCool.12 mph68%30.36 "Hg12 mi
10:00 am52 °FScattered clouds.13 mph68%30.35 "Hg14 mi
9:00 am50 °FCool.9 mph75%30.34 "Hg12 mi
8:00 am51 °FCool.16 mph72%30.33 "Hg12 mi
7:00 am51 °FPassing clouds.13 mph68%30.31 "Hg11 mi
6:00 am52 °FCool.13 mph67%30.29 "Hg12 mi
4:00 am50 °FRain. Low clouds.6 mph96%30.28 "Hg5 mi
3:00 am50 °FDrizzle. Overcast.7 mph95%30.27 "Hg12 mi
2:00 am50 °FRain. Overcast.12 mph97%30.27 "Hg2 mi
1:00 am52 °FLight rain. Passing clouds.9 mph93%30.24 "Hg6 mi
12:00 am54 °FRain. Overcast.12 mph93%30.21 "Hg5 mi
11:00 pm
Tue, Dec 10
57 °FLight rain. Overcast.12 mph83%30.15 "Hg10 mi
10:00 pm57 °FPassing clouds.10 mph82%30.16 "Hg11 mi
9:00 pm56 °FCool.8 mph83%30.17 "Hg12 mi
8:00 pm56 °FCool.8 mph82%30.20 "Hg12 mi
7:00 pm56 °FCool.8 mph77%30.21 "Hg12 mi
6:00 pm56 °FCool.9 mph71%30.22 "Hg12 mi
5:00 pm58 °FCool.8 mph61%30.23 "Hg12 mi
4:00 pm58 °FRefreshingly cool.7 mph59%30.22 "Hg12 mi
Weather by CustomWeather, © 2019

See weather overview

Advertising